Wind from 319 at 0 knots gusting 2

Air temperature 17.8° C
Dewpoint 14.1° C

Last reported at 2014-Apr-19 18:47 UTC.
Time now 2014-Apr-19 19:47 UTC

Location: N 28°23' W 016°31'.
View on Google Maps.

See reports from other nearby stations

Tides Stations Pressure Air Temp Water Temp Dewpoint Dewpoint depression Visibility Wind Speed Wind Dir Waves Ship positions

  
sailing weather and tide predictions

CW3847 La Orotava ES weather

date/time (UTC)wind fromknots sea level pressurealtimeterstation pressurevisibilityair tempwater tempwave heightnotes
2014-Apr-19 18:47 319 0 gusting 2 17.8
2014-Apr-19 18:37 308 1 gusting 3 17.8
2014-Apr-19 18:27 308 0 gusting 2 17.8
2014-Apr-19 18:07 288 0 gusting 2 18.3
2014-Apr-19 17:57 246 0 gusting 2 18.3
2014-Apr-19 17:27 024 2 gusting 3 18.3
2014-Apr-19 17:07 331 2 gusting 2 17.8
2014-Apr-19 16:57 328 3 gusting 6 17.8
2014-Apr-19 16:47 284 2 gusting 4 17.8
2014-Apr-19 16:37 313 3 gusting 6 17.8
2014-Apr-19 15:47 330 3 gusting 10 19.4
2014-Apr-19 15:37 106 2 gusting 3 19.4
2014-Apr-19 15:27 034 3 gusting 5 18.9
2014-Apr-19 14:47 319 2 gusting 5 18.9
2014-Apr-19 14:37 342 6 gusting 6 18.9
2014-Apr-19 14:17 326 6 gusting 7 18.9
2014-Apr-19 13:27 338 6 gusting 6 18.9
2014-Apr-19 13:17 341 2 gusting 6 18.9
2014-Apr-19 12:57 268 2 gusting 8 18.9
2014-Apr-19 12:37 289 6 gusting 7 19.4
2014-Apr-19 12:07 271 2 gusting 6 20.0
2014-Apr-19 11:47 292 6 gusting 6 20.6
2014-Apr-19 11:37 300 2 gusting 7 20.6
2014-Apr-19 11:27 308 2 gusting 6 20.6
2014-Apr-19 11:17 350 1 gusting 3 20.0
2014-Apr-19 10:17 277 0 gusting 6 20.0
2014-Apr-19 10:07 355 2 gusting 2 20.0
2014-Apr-19 09:57 338 2 gusting 3 20.0
2014-Apr-19 09:37 308 2 gusting 3 20.0
2014-Apr-19 09:17 360 2 gusting 4 19.4
2014-Apr-19 09:07 342 2 gusting 3 19.4
2014-Apr-19 08:17 155 17.2
2014-Apr-19 08:07 155 0 gusting 1 16.7
2014-Apr-19 07:57 175 0 gusting 2 15.6
2014-Apr-19 07:37 153 2 gusting 2 15.6
2014-Apr-19 07:07 139 1 gusting 1 15.6
2014-Apr-19 06:27 178 2 gusting 2 15.6
2014-Apr-19 06:17 157 2 gusting 4 15.6
2014-Apr-19 05:57 159 2 gusting 4 15.6
2014-Apr-19 05:47 167 2 gusting 4 15.6
2014-Apr-19 05:17 174 2 gusting 2 15.6
2014-Apr-19 04:57 187 2 gusting 2 15.0
2014-Apr-19 04:47 169 2 gusting 5 15.6
2014-Apr-19 04:17 167 2 gusting 3 15.6
2014-Apr-19 04:07 140 1 gusting 1 15.6
2014-Apr-19 03:47 148 2 gusting 3 15.6
2014-Apr-19 03:37 185 2 gusting 2 15.6
2014-Apr-19 03:27 202 0 gusting 2 15.6
2014-Apr-19 02:57 182 1 gusting 2 15.6
2014-Apr-19 02:27 170 2 gusting 2 15.6
2014-Apr-19 01:57 193 16.1
2014-Apr-19 01:47 281 1 gusting 1 16.1
2014-Apr-19 01:07 148 2 gusting 4 16.1
2014-Apr-19 00:57 156 3 gusting 3 15.6
2014-Apr-19 00:47 173 1 gusting 2 15.6
2014-Apr-19 00:27 165 1 gusting 2 16.1
2014-Apr-19 00:17 160 16.1
2014-Apr-18 23:57 159 0 gusting 1 16.1
2014-Apr-18 23:27 178 1 gusting 2 15.6
2014-Apr-18 23:07 187 0 gusting 2 16.1
2014-Apr-18 22:07 086 1 gusting 1 16.1
2014-Apr-18 21:37 049 0 gusting 1 16.1
2014-Apr-18 21:27 049 16.1
2014-Apr-18 21:17 329 1 gusting 2 16.1
2014-Apr-18 21:07 192 16.1
2014-Apr-18 20:57 303 0 gusting 0 16.1
2014-Apr-18 20:17 172 2 gusting 2 16.7
2014-Apr-18 20:07 281 16.7
2014-Apr-18 19:27 286 2 gusting 2 16.7
2014-Apr-18 18:57 013 6 gusting 6 16.7
2014-Apr-18 18:27 292 0 gusting 2 17.2
2014-Apr-18 18:17 309 2 gusting 2 17.2
2014-Apr-18 18:07 355 0 gusting 1 17.2
2014-Apr-18 17:37 101 0 gusting 2 17.2
2014-Apr-18 17:17 332 6 gusting 7 18.3
2014-Apr-18 17:07 336 2 gusting 3 18.3
2014-Apr-18 16:57 320 2 gusting 2 18.3
2014-Apr-18 16:37 312 0 gusting 2 18.3
2014-Apr-18 16:27 330 0 gusting 1 18.3
2014-Apr-18 15:57 355 1 gusting 2 18.3
2014-Apr-18 15:47 013 1 gusting 3 18.3
2014-Apr-18 15:27 331 4 gusting 6 18.9
2014-Apr-18 14:27 325 2 gusting 4 17.2
2014-Apr-18 14:17 014 2 gusting 6 17.8
2014-Apr-18 14:07 350 2 gusting 6 17.8
2014-Apr-18 13:57 030 2 gusting 5 17.8
2014-Apr-18 13:47 024 2 gusting 5 17.8
2014-Apr-18 13:37 355 2 gusting 6 17.8
2014-Apr-18 13:17 030 18.3
2014-Apr-18 13:07 011 1 gusting 5 18.3
2014-Apr-18 12:57 336 4 gusting 6 18.3
2014-Apr-18 12:27 337 17.8
2014-Apr-18 12:17 346 17.8
2014-Apr-18 11:47 009 3 gusting 7 18.3
2014-Apr-18 11:27 325 2 gusting 3 17.8
2014-Apr-18 11:07 327 3 gusting 6 17.8
2014-Apr-18 10:57 005 4 gusting 4 17.8
2014-Apr-18 10:47 017 6 gusting 8 17.8
2014-Apr-18 10:27 325 3 gusting 4 18.3
2014-Apr-18 09:47 069 2 gusting 5 18.9
2014-Apr-18 09:27 037 0 gusting 2 18.3
2014-Apr-18 09:07 269 0 gusting 1 17.8
2014-Apr-18 08:57 033 0 gusting 2 18.3
2014-Apr-18 08:27 210 0 gusting 2 17.2
2014-Apr-18 08:17 171 1 gusting 1 16.1
2014-Apr-18 08:07 170 0 gusting 1 15.0
2014-Apr-18 07:57 192 1 gusting 2 14.4
2014-Apr-18 07:47 170 1 gusting 2 14.4
2014-Apr-18 07:27 194 2 gusting 3 13.3
2014-Apr-18 07:17 163 2 gusting 3 13.3
2014-Apr-18 07:07 155 2 gusting 5 13.3
2014-Apr-18 06:37 162 2 gusting 4 13.3
2014-Apr-18 06:27 171 1 gusting 4 13.3
2014-Apr-18 06:17 169 5 gusting 5 13.3
2014-Apr-18 05:37 172 2 gusting 3 13.3
2014-Apr-18 05:27 175 1 gusting 4 13.3
2014-Apr-18 05:07 163 4 gusting 4 13.3
2014-Apr-18 04:57 183 1 gusting 3 13.9
2014-Apr-18 04:47 159 2 gusting 4 13.9
2014-Apr-18 04:27 164 2 gusting 3 13.9
2014-Apr-18 04:17 180 1 gusting 4 13.9
2014-Apr-18 03:57 173 2 gusting 2 13.9
2014-Apr-18 03:27 162 2 gusting 4 13.9
2014-Apr-18 03:17 163 3 gusting 4 13.9
2014-Apr-18 02:57 160 2 gusting 4 13.9
2014-Apr-18 02:37 181 2 gusting 4 14.4
2014-Apr-18 02:27 169 2 gusting 4 14.4
2014-Apr-18 02:17 165 6 gusting 6 14.4
2014-Apr-18 01:57 171 2 gusting 5 14.4
2014-Apr-18 01:17 180 3 gusting 6 14.4
2014-Apr-18 00:47 167 2 gusting 4 15.0
2014-Apr-17 23:17 149 2 gusting 5 15.0
2014-Apr-17 23:07 159 3 gusting 4 15.6
2014-Apr-17 22:57 154 1 gusting 3 15.6
2014-Apr-17 22:37 178 1 gusting 3 15.6
2014-Apr-17 22:17 165 2 gusting 2 15.6
2014-Apr-17 22:07 179 2 gusting 3 15.6
2014-Apr-17 21:47 183 1 gusting 2 16.1
2014-Apr-17 21:37 181 1 gusting 2 16.1
2014-Apr-17 21:17 164 0 gusting 4 16.1
2014-Apr-17 21:07 178 1 gusting 2 16.1
2014-Apr-17 20:57 180 1 gusting 2 16.7
2014-Apr-17 20:37 186 0 gusting 1 16.7
2014-Apr-17 20:27 169 1 gusting 1 16.7
2014-Apr-17 20:17 159 1 gusting 3 16.7
2014-Apr-17 20:07 236 0 gusting 1 16.7
2014-Apr-17 19:57 348 0 gusting 1 17.2
2014-Apr-17 19:47 348 0 gusting 0 17.2
2014-Apr-17 19:27 351 2 gusting 2 17.8
2014-Apr-17 19:17 031 2 gusting 2 17.8
2014-Apr-17 19:07 032 1 gusting 2 17.8